Data start date =,1/2/1942
Data end date/time =,5/5/2024 12:00
Vertical Datum =,MSL1912
""
Date/Time,TraverseWR_Dam
,Elev
UTC,ft
,Ave
1/5/1942 12:00,971.59
1/9/1942 12:00,971.59
1/12/1942 12:00,971.59
1/16/1942 12:00,971.58
1/20/1942 12:00,971.58
1/23/1942 12:00,971.57
1/26/1942 12:00,971.56
1/30/1942 12:00,971.55
2/2/1942 12:00,971.56
2/6/1942 12:00,971.56
2/9/1942 12:00,971.56
2/13/1942 12:00,971.55
2/16/1942 12:00,971.55
2/20/1942 12:00,971.54
2/23/1942 12:00,971.53
2/27/1942 12:00,971.51
3/2/1942 12:00,971.51
3/6/1942 12:00,971.51
3/9/1942 12:00,971.52
3/13/1942 12:00,971.52
3/15/1942 12:00,971.54
3/16/1942 12:00,971.55
3/17/1942 12:00,971.55
3/18/1942 12:00,971.55
3/19/1942 12:00,971.54
3/20/1942 12:00,971.54
3/21/1942 12:00,971.54
3/22/1942 12:00,971.54
3/23/1942 12:00,971.53
3/24/1942 12:00,971.53
3/25/1942 12:00,971.58
3/26/1942 12:00,971.65
3/27/1942 12:00,971.72
3/28/1942 12:00,971.75
3/29/1942 12:00,971.75
3/30/1942 12:00,971.75
3/31/1942 12:00,971.75
4/1/1942 12:00,971.73
4/2/1942 12:00,971.72
4/3/1942 12:00,971.71
4/4/1942 12:00,971.70
4/5/1942 12:00,971.70
4/6/1942 12:00,971.72
4/7/1942 12:00,971.64
4/8/1942 12:00,971.74
4/9/1942 12:00,971.76
4/10/1942 12:00,971.68
4/11/1942 12:00,971.74
4/12/1942 12:00,971.84
4/13/1942 12:00,971.69
4/14/1942 12:00,971.73
4/15/1942 12:00,971.75
4/16/1942 12:00,971.69
4/17/1942 12:00,971.68
4/18/1942 12:00,971.72
4/19/1942 12:00,971.69
4/20/1942 12:00,971.66
4/21/1942 12:00,971.68
4/22/1942 12:00,972.05
4/23/1942 12:00,971.92
4/24/1942 12:00,971.72
4/25/1942 12:00,971.68
4/26/1942 12:00,971.65
4/27/1942 12:00,971.66
4/28/1942 12:00,971.70
4/29/1942 12:00,971.65
4/30/1942 12:00,971.69
5/1/1942 12:00,971.82
5/2/1942 12:00,971.85
5/3/1942 12:00,971.76
5/4/1942 12:00,971.88
5/5/1942 12:00,971.88
5/6/1942 12:00,971.85
5/7/1942 12:00,971.91
5/8/1942 12:00,971.91
5/9/1942 12:00,971.82
5/10/1942 12:00,971.91
5/11/1942 12:00,971.82
5/12/1942 12:00,971.88
5/13/1942 12:00,971.48
5/14/1942 12:00,971.73
5/15/1942 12:00,972.11
5/16/1942 12:00,972.06
5/17/1942 12:00,972.09
5/18/1942 12:00,972.26
5/19/1942 12:00,972.27
5/20/1942 12:00,972.21
5/21/1942 12:00,972.22
5/22/1942 12:00,972.21
5/23/1942 12:00,972.23
5/24/1942 12:00,972.35
5/25/1942 12:00,972.33
5/26/1942 12:00,972.29
5/27/1942 12:00,972.43
5/28/1942 12:00,972.65
5/29/1942 12:00,972.47
5/30/1942 12:00,972.65
5/31/1942 12:00,972.95
6/1/1942 12:00,973.35
6/2/1942 12:00,973.55
6/3/1942 12:00,973.82
6/4/1942 12:00,974.00
6/5/1942 12:00,974.36
6/6/1942 12:00,974.48
6/7/1942 12:00,974.78
6/8/1942 12:00,975.48
6/9/1942 12:00,976.05
6/10/1942 12:00,976.59
6/11/1942 12:00,976.88
6/12/1942 12:00,977.35
6/13/1942 12:00,977.54
6/14/1942 12:00,977.65
6/15/1942 12:00,977.80
6/16/1942 12:00,977.95
6/17/1942 12:00,977.94
6/18/1942 12:00,977.97
6/19/1942 12:00,977.97
6/20/1942 12:00,978.00
6/21/1942 12:00,978.00
6/22/1942 12:00,977.95
6/23/1942 12:00,977.88
6/24/1942 12:00,977.88
6/25/1942 12:00,977.85
6/26/1942 12:00,977.90
6/27/1942 12:00,977.82
6/28/1942 12:00,977.85
6/29/1942 12:00,977.90
6/30/1942 12:00,977.78
7/1/1942 12:00,977.67
7/2/1942 12:00,977.63
7/3/1942 12:00,977.58
7/4/1942 12:00,977.53
7/5/1942 12:00,977.53
7/6/1942 12:00,977.42
7/7/1942 12:00,977.43
7/8/1942 12:00,977.43
7/9/1942 12:00,977.34
7/10/1942 12:00,977.31
7/11/1942 12:00,977.24
7/12/1942 12:00,977.20
7/13/1942 12:00,977.00
7/14/1942 12:00,976.87
7/15/1942 12:00,976.62
7/16/1942 12:00,976.42
7/17/1942 12:00,976.29
7/18/1942 12:00,976.18
7/19/1942 12:00,975.98
7/20/1942 12:00,975.73
7/21/1942 12:00,975.50
7/22/1942 12:00,975.36
7/23/1942 12:00,975.24
7/24/1942 12:00,974.90
7/25/1942 12:00,974.66
7/26/1942 12:00,974.38
7/27/1942 12:00,974.19
7/28/1942 12:00,973.92
7/29/1942 12:00,973.74
7/30/1942 12:00,973.43
7/31/1942 12:00,973.88
8/1/1942 12:00,973.88
8/2/1942 12:00,973.78
8/3/1942 12:00,973.77
8/4/1942 12:00,973.73
8/5/1942 12:00,973.80
8/6/1942 12:00,973.72
8/7/1942 12:00,973.68
8/8/1942 12:00,973.64
8/9/1942 12:00,973.62
8/10/1942 12:00,973.56
8/11/1942 12:00,973.42
8/12/1942 12:00,973.32
8/13/1942 12:00,973.32
8/14/1942 12:00,973.40
8/15/1942 12:00,973.23
8/16/1942 12:00,973.20
8/17/1942 12:00,973.13
8/18/1942 12:00,973.05
8/19/1942 12:00,972.94
8/20/1942 12:00,972.92
8/21/1942 12:00,972.75
8/22/1942 12:00,972.52
8/23/1942 12:00,972.54
8/24/1942 12:00,972.58
8/25/1942 12:00,972.51
8/26/1942 12:00,972.35
8/27/1942 12:00,972.03
8/28/1942 12:00,972.05
8/29/1942 12:00,972.18
8/30/1942 12:00,972.17
8/31/1942 12:00,972.05
9/1/1942 12:00,972.30
9/2/1942 12:00,972.18
9/3/1942 12:00,972.32
9/4/1942 12:00,972.44
9/5/1942 12:00,972.35
9/6/1942 12:00,972.20
9/7/1942 12:00,972.01
9/8/1942 12:00,971.98
9/9/1942 12:00,972.15
9/10/1942 12:00,972.44
9/11/1942 12:00,972.52
9/12/1942 12:00,972.29
9/13/1942 12:00,972.34
9/14/1942 12:00,972.32
9/15/1942 12:00,972.44
9/16/1942 12:00,972.29
9/17/1942 12:00,972.22
9/18/1942 12:00,972.00
9/19/1942 12:00,972.34
9/20/1942 12:00,972.44
9/21/1942 12:00,972.40
9/22/1942 12:00,972.26
9/23/1942 12:00,972.08
9/24/1942 12:00,972.04
9/25/1942 12:00,972.03
9/26/1942 12:00,971.98
9/27/1942 12:00,972.15
9/28/1942 12:00,972.37
9/29/1942 12:00,972.26
9/30/1942 12:00,972.22
10/1/1942 12:00,972.08
10/2/1942 12:00,972.22
10/3/1942 12:00,972.15
10/4/1942 12:00,972.30
10/5/1942 12:00,972.22
10/6/1942 12:00,972.18
10/7/1942 12:00,972.25
10/8/1942 12:00,972.18
10/9/1942 12:00,972.15
10/10/1942 12:00,972.15
10/11/1942 12:00,972.10
10/12/1942 12:00,972.22
10/13/1942 12:00,972.10
10/14/1942 12:00,972.08
10/15/1942 12:00,972.08
10/16/1942 12:00,972.08
10/17/1942 12:00,972.01
10/18/1942 12:00,972.11
10/19/1942 12:00,972.07
10/20/1942 12:00,972.12
10/21/1942 12:00,972.06
10/22/1942 12:00,971.92
10/23/1942 12:00,972.02
10/24/1942 12:00,972.10
10/25/1942 12:00,971.76
10/26/1942 12:00,972.04
10/27/1942 12:00,972.08
10/28/1942 12:00,972.07
10/29/1942 12:00,972.08
10/30/1942 12:00,972.08
10/31/1942 12:00,972.09
11/1/1942 12:00,972.04
11/2/1942 12:00,972.08
11/3/1942 12:00,972.10
11/4/1942 12:00,972.20
11/5/1942 12:00,971.95
11/6/1942 12:00,972.08
11/7/1942 12:00,972.08
11/8/1942 12:00,972.08
11/9/1942 12:00,972.02
11/10/1942 12:00,972.05
11/11/1942 12:00,972.08
11/12/1942 12:00,972.09
11/13/1942 12:00,972.11
11/14/1942 12:00,972.11
11/15/1942 12:00,972.10
11/16/1942 12:00,972.06
11/17/1942 12:00,972.05
11/18/1942 12:00,972.08
11/19/1942 12:00,972.05
11/20/1942 12:00,971.89
11/21/1942 12:00,972.05
11/22/1942 12:00,972.05
11/23/1942 12:00,972.04
11/24/1942 12:00,972.04
11/25/1942 12:00,972.04
11/26/1942 12:00,972.04
11/27/1942 12:00,972.05
11/28/1942 12:00,972.05
11/29/1942 12:00,972.05
11/30/1942 12:00,972.05
12/1/1942 12:00,972.05
12/6/1942 12:00,972.05
12/12/1942 12:00,972.05
12/19/1942 12:00,972.04
12/26/1942 12:00,972.09
1/2/1943 12:00,972.07
1/9/1943 12:00,972.14
1/16/1943 12:00,972.16
1/23/1943 12:00,972.18
1/30/1943 12:00,972.16
2/3/1943 12:00,972.18
2/6/1943 12:00,972.19
2/7/1943 12:00,972.19
2/13/1943 12:00,972.21
2/20/1943 12:00,972.22
2/27/1943 12:00,972.23
3/6/1943 12:00,972.22
3/13/1943 12:00,972.25
3/16/1943 12:00,972.62
3/17/1943 12:00,972.68
3/18/1943 12:00,972.74
3/19/1943 12:00,972.80
3/20/1943 12:00,972.85
3/21/1943 12:00,972.90
3/22/1943 12:00,972.93
3/23/1943 12:00,973.00
3/24/1943 12:00,973.02
3/25/1943 12:00,973.03
3/26/1943 12:00,973.12
3/27/1943 12:00,973.45
3/28/1943 12:00,973.82
3/29/1943 12:00,974.06
3/30/1943 12:00,974.57
3/31/1943 12:00,974.87
4/1/1943 12:00,975.00
4/2/1943 12:00,975.66
4/3/1943 12:00,976.30
4/4/1943 12:00,976.68
4/5/1943 12:00,977.27
4/6/1943 12:00,977.62
4/7/1943 12:00,978.00
4/8/1943 12:00,978.40
4/9/1943 12:00,978.45
4/10/1943 12:00,978.55
4/11/1943 12:00,978.80
4/12/1943 12:00,978.78
4/13/1943 12:00,978.45
4/14/1943 12:00,978.70
4/15/1943 12:00,979.00
4/16/1943 12:00,978.70
4/17/1943 12:00,979.00
4/18/1943 12:00,978.90
4/19/1943 12:00,979.07
4/20/1943 12:00,979.18
4/21/1943 12:00,979.30
4/22/1943 12:00,979.10
4/23/1943 12:00,979.08
4/24/1943 12:00,979.05
4/25/1943 12:00,978.85
4/26/1943 12:00,978.90
4/27/1943 12:00,978.55
4/28/1943 12:00,978.70
4/29/1943 12:00,978.70
4/30/1943 12:00,978.40
5/1/1943 12:00,978.55
5/2/1943 12:00,978.50
5/3/1943 12:00,978.40
5/4/1943 12:00,978.40
5/5/1943 12:00,978.35
5/6/1943 12:00,978.30
5/7/1943 12:00,978.00
5/8/1943 12:00,977.88
5/9/1943 12:00,977.80
5/10/1943 12:00,977.75
5/11/1943 12:00,977.38
5/12/1943 12:00,977.40
5/13/1943 12:00,977.40
5/14/1943 12:00,977.30
5/15/1943 12:00,977.12
5/16/1943 12:00,976.98
5/17/1943 12:00,976.95
5/18/1943 12:00,976.85
5/19/1943 12:00,976.75
5/20/1943 12:00,976.60
5/21/1943 12:00,976.46
5/22/1943 12:00,976.40
5/23/1943 12:00,976.35
5/24/1943 12:00,976.20
5/25/1943 12:00,976.08
5/26/1943 12:00,976.04
5/27/1943 12:00,976.08
5/28/1943 12:00,976.05
5/29/1943 12:00,976.00
5/30/1943 12:00,975.92
5/31/1943 12:00,975.80
6/1/1943 12:00,975.72
6/2/1943 12:00,975.60
6/3/1943 12:00,975.76
6/4/1943 12:00,975.67
6/5/1943 12:00,975.63
6/6/1943 12:00,975.52
6/7/1943 12:00,975.45
6/8/1943 12:00,975.36
6/9/1943 12:00,975.27
6/10/1943 12:00,975.14
6/11/1943 12:00,975.05
6/12/1943 12:00,974.97
6/13/1943 12:00,974.85
6/14/1943 12:00,974.80
6/15/1943 12:00,974.70
6/16/1943 12:00,974.62
6/17/1943 12:00,974.80
6/18/1943 12:00,974.85
6/19/1943 12:00,974.76
6/20/1943 12:00,974.60
6/21/1943 12:00,974.37
6/22/1943 12:00,974.32
6/23/1943 12:00,974.30
6/24/1943 12:00,973.60
6/25/1943 12:00,974.10
6/26/1943 12:00,974.10
6/27/1943 12:00,974.35
6/28/1943 12:00,974.30
6/29/1943 12:00,974.52
6/30/1943 12:00,974.85
7/1/1943 12:00,975.06
7/2/1943 12:00,975.10
7/3/1943 12:00,975.06
7/4/1943 12:00,975.09
7/5/1943 12:00,975.17
7/6/1943 12:00,975.15
7/7/1943 12:00,975.05
7/8/1943 12:00,974.97
7/9/1943 12:00,974.70
7/10/1943 12:00,974.82
7/11/1943 12:00,974.87
7/12/1943 12:00,974.85
7/13/1943 12:00,974.78
7/14/1943 12:00,974.62
7/15/1943 12:00,974.32
7/16/1943 12:00,974.34
7/17/1943 12:00,974.28
7/18/1943 12:00,973.95
7/19/1943 12:00,973.90
7/20/1943 12:00,972.56
7/21/1943 12:00,972.42
7/22/1943 12:00,972.30
7/23/1943 12:00,972.18
7/24/1943 12:00,972.60
7/25/1943 12:00,972.08
7/26/1943 12:00,972.46
7/27/1943 12:00,972.63
7/28/1943 12:00,972.72
7/29/1943 12:00,972.72
7/30/1943 12:00,972.65
7/31/1943 12:00,972.62
8/1/1943 12:00,972.60
8/2/1943 12:00,972.32
8/3/1943 12:00,972.45
8/4/1943 12:00,972.46
8/5/1943 12:00,972.45
8/6/1943 12:00,972.48
8/7/1943 12:00,972.42
8/8/1943 12:00,972.38
8/9/1943 12:00,972.34
8/10/1943 12:00,972.35
8/11/1943 12:00,972.28
8/12/1943 12:00,972.27
8/13/1943 12:00,972.20
8/14/1943 12:00,972.12
8/15/1943 12:00,972.04
8/16/1943 12:00,971.90
8/17/1943 12:00,971.94
8/18/1943 12:00,971.98
8/19/1943 12:00,972.02
8/20/1943 12:00,972.00
8/21/1943 12:00,971.97
8/22/1943 12:00,971.98
8/23/1943 12:00,971.95
8/24/1943 12:00,971.95
8/25/1943 12:00,972.02
8/26/1943 12:00,972.02
8/27/1943 12:00,972.01
8/28/1943 12:00,972.05
8/29/1943 12:00,972.05
8/30/1943 12:00,972.05
8/31/1943 12:00,972.05
9/1/1943 12:00,972.01
9/2/1943 12:00,972.05
9/3/1943 12:00,971.98
9/4/1943 12:00,972.02
9/5/1943 12:00,972.06
9/6/1943 12:00,972.02
9/7/1943 12:00,972.00
9/8/1943 12:00,972.01
9/9/1943 12:00,971.98
9/10/1943 12:00,971.96
9/11/1943 12:00,971.96
9/12/1943 12:00,972.02
9/13/1943 12:00,972.04
9/14/1943 12:00,972.02
9/15/1943 12:00,972.01
9/16/1943 12:00,971.99
9/17/1943 12:00,972.02
9/18/1943 12:00,972.25
9/19/1943 12:00,971.95
9/20/1943 12:00,971.97
9/21/1943 12:00,972.02
9/22/1943 12:00,971.88
9/23/1943 12:00,971.85
9/24/1943 12:00,971.85
9/25/1943 12:00,971.85
9/26/1943 12:00,971.98
9/27/1943 12:00,971.85
9/28/1943 12:00,971.85
9/29/1943 12:00,971.88
9/30/1943 12:00,971.85
10/1/1943 12:00,971.78
10/2/1943 12:00,971.75
10/3/1943 12:00,971.73
10/4/1943 12:00,971.75
10/5/1943 12:00,971.75
10/6/1943 12:00,971.78
10/7/1943 12:00,971.74
10/8/1943 12:00,971.68
10/9/1943 12:00,971.65
10/10/1943 12:00,971.67
10/11/1943 12:00,971.68
10/12/1943 12:00,971.80
10/13/1943 12:00,971.48
10/14/1943 12:00,971.68
10/15/1943 12:00,971.80
10/16/1943 12:00,971.82
10/17/1943 12:00,971.83
10/18/1943 12:00,971.85
10/19/1943 12:00,971.85
10/20/1943 12:00,972.00
10/21/1943 12:00,971.85
10/22/1943 12:00,971.88
10/23/1943 12:00,971.82
10/24/1943 12:00,971.78
10/25/1943 12:00,971.78
10/26/1943 12:00,971.78
10/27/1943 12:00,971.85
10/28/1943 12:00,971.75
10/29/1943 12:00,971.68
10/30/1943 12:00,971.65
10/31/1943 12:00,971.62
11/1/1943 12:00,971.82
11/2/1943 12:00,971.78
11/3/1943 12:00,971.72
11/4/1943 12:00,971.78
11/5/1943 12:00,971.62
11/6/1943 12:00,971.60
11/7/1943 12:00,971.57
11/8/1943 12:00,971.27
11/9/1943 12:00,971.47
11/10/1943 12:00,971.52
11/11/1943 12:00,971.60
11/12/1943 12:00,971.63
11/13/1943 12:00,971.68
11/14/1943 12:00,971.70
11/15/1943 12:00,971.70
11/16/1943 12:00,971.70
11/17/1943 12:00,971.70
11/18/1943 12:00,971.68
11/19/1943 12:00,971.68
11/20/1943 12:00,971.68
11/21/1943 12:00,971.68
11/22/1943 12:00,971.68
11/23/1943 12:00,971.67
11/24/1943 12:00,971.65
11/25/1943 12:00,971.66
11/26/1943 12:00,971.65
11/27/1943 12:00,971.64
11/28/1943 12:00,971.63
11/29/1943 12:00,971.63
11/30/1943 12:00,971.63
12/1/1943 12:00,971.63
12/2/1943 12:00,971.63
12/3/1943 12:00,971.62
12/4/1943 12:00,971.62
12/5/1943 12:00,971.60
12/6/1943 12:00,971.60
12/7/1943 12:00,971.60
12/8/1943 12:00,971.63
12/9/1943 12:00,971.64
12/10/1943 12:00,971.65
12/11/1943 12:00,971.66
12/12/1943 12:00,971.66
12/13/1943 12:00,971.64
12/14/1943 12:00,971.62
12/15/1943 12:00,971.62
12/16/1943 12:00,971.62
12/17/1943 12:00,971.62
12/18/1943 12:00,971.62
12/19/1943 12:00,971.62
12/20/1943 12:00,971.62
12/21/1943 12:00,971.62
12/22/1943 12:00,971.62
12/23/1943 12:00,971.62
12/24/1943 12:00,971.62
12/25/1943 12:00,971.62
12/26/1943 12:00,971.62
12/27/1943 12:00,971.62
12/28/1943 12:00,971.62
12/29/1943 12:00,971.62
12/30/1943 12:00,971.62
12/31/1943 12:00,971.62
1/1/1944 12:00,971.62
1/2/1944 12:00,971.62
1/3/1944 12:00,971.61
1/4/1944 12:00,971.61
1/5/1944 12:00,971.61
1/6/1944 12:00,971.61
1/7/1944 12:00,971.61
1/8/1944 12:00,971.61
1/9/1944 12:00,971.60
1/10/1944 12:00,971.60
1/11/1944 12:00,971.60
1/12/1944 12:00,971.60
1/13/1944 12:00,971.60
1/14/1944 12:00,971.60
1/15/1944 12:00,971.60
1/16/1944 12:00,971.60
1/17/1944 12:00,971.60
1/18/1944 12:00,971.60
1/19/1944 12:00,971.59
1/20/1944 12:00,971.59
1/21/1944 12:00,971.59
1/22/1944 12:00,971.59
1/23/1944 12:00,971.58
1/24/1944 12:00,971.58
1/25/1944 12:00,971.58
1/26/1944 12:00,971.62
1/27/1944 12:00,971.64
1/28/1944 12:00,971.71
1/29/1944 12:00,971.71
1/30/1944 12:00,971.71
1/31/1944 12:00,971.72
2/1/1944 12:00,971.72
2/2/1944 12:00,971.72
2/3/1944 12:00,971.73
2/4/1944 12:00,971.74
2/5/1944 12:00,971.75
2/6/1944 12:00,971.75
2/7/1944 12:00,971.75
2/8/1944 12:00,971.75
2/9/1944 12:00,971.76
2/10/1944 12:00,971.76
2/11/1944 12:00,971.77
2/12/1944 12:00,971.77
2/13/1944 12:00,971.77
2/14/1944 12:00,971.77
2/15/1944 12:00,971.77
2/16/1944 12:00,971.77
2/17/1944 12:00,971.77
2/18/1944 12:00,971.77
2/19/1944 12:00,971.76
2/20/1944 12:00,971.76
2/21/1944 12:00,971.76
2/22/1944 12:00,971.75
2/23/1944 12:00,971.75
2/24/1944 12:00,971.74
2/25/1944 12:00,971.74
2/26/1944 12:00,971.74
2/27/1944 12:00,971.74
2/28/1944 12:00,971.74
2/29/1944 12:00,971.74
3/1/1944 12:00,971.73
3/2/1944 12:00,971.73
3/3/1944 12:00,971.72
3/4/1944 12:00,971.72
3/5/1944 12:00,971.72
3/6/1944 12:00,971.72
3/7/1944 12:00,971.72
3/8/1944 12:00,971.72
3/9/1944 12:00,971.73
3/10/1944 12:00,971.73
3/11/1944 12:00,971.74
3/12/1944 12:00,971.74
3/13/1944 12:00,971.74
3/14/1944 12:00,971.74
3/15/1944 12:00,971.75
3/16/1944 12:00,971.78
3/17/1944 12:00,971.80
3/18/1944 12:00,971.81
3/19/1944 12:00,971.82
3/20/1944 12:00,971.82
3/21/1944 12:00,971.83
3/22/1944 12:00,971.86
3/23/1944 12:00,971.89
3/24/1944 12:00,971.97
3/25/1944 12:00,971.99
3/26/1944 12:00,972.00
3/27/1944 12:00,972.05
3/28/1944 12:00,972.08
3/29/1944 12:00,972.10
3/30/1944 12:00,972.12
3/31/1944 12:00,972.18
4/1/1944 12:00,972.34
4/2/1944 12:00,972.56
4/3/1944 12:00,972.85
4/4/1944 12:00,972.15
4/5/1944 12:00,972.14
4/6/1944 12:00,972.55
4/7/1944 12:00,972.85
4/8/1944 12:00,972.67
4/9/1944 12:00,972.52
4/10/1944 12:00,972.75
4/11/1944 12:00,972.50
4/12/1944 12:00,972.45
4/13/1944 12:00,972.25
4/14/1944 12:00,971.42
4/15/1944 12:00,972.15
4/16/1944 12:00,972.20
4/17/1944 12:00,972.18
4/18/1944 12:00,972.17
4/19/1944 12:00,972.19
4/20/1944 12:00,972.15
4/21/1944 12:00,972.34
4/22/1944 12:00,972.19
4/23/1944 12:00,972.05
4/24/1944 12:00,972.16
4/25/1944 12:00,972.51
4/26/1944 12:00,972.53
4/27/1944 12:00,972.60
4/28/1944 12:00,972.50
4/29/1944 12:00,972.55
4/30/1944 12:00,972.38
5/1/1944 12:00,972.42
5/2/1944 12:00,972.20
5/3/1944 12:00,971.90
5/4/1944 12:00,971.95
5/5/1944 12:00,972.28
5/6/1944 12:00,972.55
5/7/1944 12:00,972.43
5/8/1944 12:00,972.42
5/9/1944 12:00,972.45
5/10/1944 12:00,972.80
5/11/1944 12:00,972.40
5/12/1944 12:00,972.55
5/13/1944 12:00,972.15
5/14/1944 12:00,972.08
5/15/1944 12:00,972.00
5/16/1944 12:00,971.25
5/17/1944 12:00,970.73
5/18/1944 12:00,971.58
5/19/1944 12:00,972.70
5/20/1944 12:00,973.04
5/21/1944 12:00,973.03
5/22/1944 12:00,972.68
5/23/1944 12:00,972.56
5/24/1944 12:00,972.10
5/25/1944 12:00,970.15
5/26/1944 12:00,971.42
5/27/1944 12:00,972.52
5/28/1944 12:00,972.48
5/29/1944 12:00,972.62
5/30/1944 12:00,972.47
5/31/1944 12:00,972.46
6/1/1944 12:00,972.46
6/2/1944 12:00,972.48
6/3/1944 12:00,972.42
6/4/1944 12:00,973.20
6/5/1944 12:00,973.76
6/6/1944 12:00,974.08
6/7/1944 12:00,974.40
6/8/1944 12:00,974.68
6/9/1944 12:00,975.00
6/10/1944 12:00,975.26
6/11/1944 12:00,975.61
6/12/1944 12:00,975.65
6/13/1944 12:00,975.77
6/14/1944 12:00,975.82
6/15/1944 12:00,975.80
6/16/1944 12:00,975.71
6/17/1944 12:00,975.49
6/18/1944 12:00,975.70
6/19/1944 12:00,975.48
6/20/1944 12:00,975.36
6/21/1944 12:00,975.27
6/22/1944 12:00,975.02
6/23/1944 12:00,974.96
6/24/1944 12:00,974.85
6/25/1944 12:00,974.70
6/26/1944 12:00,974.56
6/27/1944 12:00,974.55
6/28/1944 12:00,974.55
6/29/1944 12:00,974.28
6/30/1944 12:00,974.20
7/1/1944 12:00,974.05
7/2/1944 12:00,974.10
7/3/1944 12:00,973.65
7/4/1944 12:00,973.89
7/5/1944 12:00,974.00
7/6/1944 12:00,974.00
7/7/1944 12:00,974.00
7/8/1944 12:00,973.97
7/9/1944 12:00,974.00
7/10/1944 12:00,974.00
7/11/1944 12:00,974.00
7/12/1944 12:00,973.98
7/13/1944 12:00,974.00
7/14/1944 12:00,973.98
7/15/1944 12:00,974.00
7/16/1944 12:00,974.15
7/17/1944 12:00,974.10
7/18/1944 12:00,974.00
7/19/1944 12:00,973.85
7/20/1944 12:00,973.54
7/21/1944 12:00,973.28
7/22/1944 12:00,973.20
7/23/1944 12:00,972.57
7/24/1944 12:00,972.92
7/25/1944 12:00,972.95
7/26/1944 12:00,972.80
7/27/1944 12:00,972.73
7/28/1944 12:00,972.75
7/29/1944 12:00,972.44
7/30/1944 12:00,972.38
7/31/1944 12:00,972.35
8/1/1944 12:00,972.40
8/2/1944 12:00,972.38
8/3/1944 12:00,972.38
8/4/1944 12:00,972.39
8/5/1944 12:00,972.39
8/6/1944 12:00,972.31
8/7/1944 12:00,972.43
8/8/1944 12:00,972.27
8/9/1944 12:00,972.24
8/10/1944 12:00,972.20
8/11/1944 12:00,972.16
8/12/1944 12:00,972.11
8/13/1944 12:00,972.04
8/14/1944 12:00,972.06
8/15/1944 12:00,972.00
8/16/1944 12:00,972.03
8/17/1944 12:00,971.97
8/18/1944 12:00,971.96
8/19/1944 12:00,972.22
8/20/1944 12:00,971.98
8/21/1944 12:00,971.94
8/22/1944 12:00,971.87
8/23/1944 12:00,971.82
8/24/1944 12:00,971.85
8/25/1944 12:00,971.87
8/26/1944 12:00,972.00
8/27/1944 12:00,971.90
8/28/1944 12:00,971.93
8/29/1944 12:00,971.90
8/30/1944 12:00,971.89
8/31/1944 12:00,971.92
9/1/1944 12:00,971.95
9/2/1944 12:00,971.85
9/3/1944 12:00,971.98
9/4/1944 12:00,971.86
9/5/1944 12:00,971.74
9/6/1944 12:00,971.81
9/7/1944 12:00,971.78
9/8/1944 12:00,971.83
9/9/1944 12:00,971.78
9/10/1944 12:00,971.68
9/11/1944 12:00,971.88
9/12/1944 12:00,971.78
9/13/1944 12:00,971.83
9/14/1944 12:00,971.88
9/15/1944 12:00,971.86
9/16/1944 12:00,971.92
9/17/1944 12:00,972.00
9/18/1944 12:00,971.59
9/19/1944 12:00,971.71
9/20/1944 12:00,971.76
9/21/1944 12:00,971.71
9/22/1944 12:00,971.70
9/23/1944 12:00,971.69
9/24/1944 12:00,971.88
9/25/1944 12:00,971.67
9/26/1944 12:00,971.62
9/27/1944 12:00,971.51
9/28/1944 12:00,971.67
9/29/1944 12:00,971.52
9/30/1944 12:00,971.87
10/1/1944 12:00,971.31
10/2/1944 12:00,971.62
10/3/1944 12:00,971.70
10/4/1944 12:00,971.73
10/5/1944 12:00,971.67
10/6/1944 12:00,971.72
10/7/1944 12:00,971.59
10/8/1944 12:00,971.52
10/9/1944 12:00,971.54
10/10/1944 12:00,971.61
10/11/1944 12:00,971.51
10/12/1944 12:00,971.71
10/13/1944 12:00,971.51
10/14/1944 12:00,971.55
10/15/1944 12:00,971.57
10/16/1944 12:00,971.56
10/17/1944 12:00,971.64
10/18/1944 12:00,971.07
10/19/1944 12:00,971.51
10/20/1944 12:00,971.50
10/21/1944 12:00,971.46
10/22/1944 12:00,971.56
10/23/1944 12:00,971.55
10/24/1944 12:00,971.69
10/25/1944 12:00,971.56
10/26/1944 12:00,971.44
10/27/1944 12:00,971.47
10/28/1944 12:00,971.44
10/29/1944 12:00,971.42
10/30/1944 12:00,971.43
10/31/1944 12:00,971.41
11/1/1944 12:00,971.49
11/2/1944 12:00,971.42
11/3/1944 12:00,971.41
11/4/1944 12:00,971.37
11/5/1944 12:00,971.52
11/6/1944 12:00,971.59
11/7/1944 12:00,971.36
11/8/1944 12:00,971.33
11/9/1944 12:00,971.12
11/10/1944 12:00,971.52
11/11/1944 12:00,971.46
11/12/1944 12:00,971.46
11/13/1944 12:00,971.39
11/14/1944 12:00,971.44
11/15/1944 12:00,970.90
11/16/1944 12:00,971.34
11/17/1944 12:00,971.55
11/18/1944 12:00,971.52
11/19/1944 12:00,971.44
11/20/1944 12:00,971.45
11/21/1944 12:00,971.42
11/22/1944 12:00,971.42
11/23/1944 12:00,971.40
11/24/1944 12:00,971.42
11/25/1944 12:00,971.40
11/26/1944 12:00,971.35
11/27/1944 12:00,971.48
11/28/1944 12:00,971.47
11/29/1944 12:00,971.49
11/30/1944 12:00,971.50
12/1/1944 12:00,971.49
12/2/1944 12:00,971.49
12/3/1944 12:00,971.50
12/4/1944 12:00,971.50
12/5/1944 12:00,971.49
12/6/1944 12:00,971.49
12/7/1944 12:00,971.49
12/8/1944 12:00,971.49
12/9/1944 12:00,971.49
12/10/1944 12:00,971.49
12/11/1944 12:00,971.49
12/12/1944 12:00,971.48
12/13/1944 12:00,971.48
12/14/1944 12:00,971.48
12/15/1944 12:00,971.48
12/16/1944 12:00,971.48
12/17/1944 12:00,971.48
12/18/1944 12:00,971.48
12/19/1944 12:00,971.48
12/20/1944 12:00,971.48
12/21/1944 12:00,971.48
12/22/1944 12:00,971.48
12/23/1944 12:00,971.48
12/24/1944 12:00,971.47
12/25/1944 12:00,971.47
12/26/1944 12:00,971.47
12/27/1944 12:00,971.47
12/28/1944 12:00,971.47
12/29/1944 12:00,971.46
12/30/1944 12:00,971.45
1/1/1945 12:00,971.45
1/2/1945 12:00,971.44
1/3/1945 12:00,971.44
1/4/1945 12:00,971.44
1/5/1945 12:00,971.43
1/6/1945 12:00,971.44
1/7/1945 12:00,971.44
1/8/1945 12:00,971.44
1/9/1945 12:00,971.33
1/10/1945 12:00,971.43
1/11/1945 12:00,971.43
1/12/1945 12:00,971.43
1/13/1945 12:00,971.43
1/14/1945 12:00,971.43
1/15/1945 12:00,971.43
1/16/1945 12:00,971.43
1/17/1945 12:00,971.43
1/18/1945 12:00,971.43
1/19/1945 12:00,971.43
1/20/1945 12:00,971.43
1/21/1945 12:00,971.42
1/22/1945 12:00,971.42
1/23/1945 12:00,971.42
1/24/1945 12:00,971.42
1/25/1945 12:00,971.42
1/26/1945 12:00,971.42
1/27/1945 12:00,971.42
1/28/1945 12:00,971.42
1/29/1945 12:00,971.42
1/30/1945 12:00,971.42
1/31/1945 12:00,971.42
2/1/1945 12:00,971.42
2/2/1945 12:00,971.42
2/3/1945 12:00,971.41
2/4/1945 12:00,971.41
2/5/1945 12:00,971.40
2/6/1945 12:00,971.40
2/7/1945 12:00,971.40
2/8/1945 12:00,971.39
2/9/1945 12:00,971.39
2/10/1945 12:00,971.40